Location: Unspecified
(0.0000°N, 0.0000°E)
Time: 11:10:23
(UTC+00:00)

KKS-1 - Pass Details

Date: 12 December 2017
Orbit: 637 x 651 km, 98.3° (Epoch: 18 January)

Event Time Altitude Azimuth Distance (km) Brightness Sun altitude
Rises 04:27:51 0° 152° (SSE) 2,968 ? -19.7°
Reaches altitude 10° 04:30:13 10° 143° (SE) 2,055 ? -19.1°
Maximum altitude 04:34:17 34° 78° (ENE) 1,073 ? -18.2°
Drops below altitude 10° 04:38:18 10° 13° (NNE) 2,045 ? -17.3°
Sets 04:40:40 0° 4° (N) 2,951 ? -16.7°
